Flag for Australia Weather past 2 weeks in Adelaide, South Australia, Australia

Now
50 °F

Passing clouds.


Feels Like: 47 °F
Forecast: 47 / 58 °F
Wind: 7 mph from South

Location: Adelaide Airport

Current Time: Sep 4, 2015 at 3:12:52 AM

Latest Report: Sep 4, 2015 at 2:30 AM


Visibility: N/A

Pressure: 30.30 "Hg

Humidity: 82%

Dew point: 45 °F

Location of AdelaideLocation

Historic Weather in Adelaide — Graph

°F

Adelaide temperature yesterday

Maximum temperature yesterday: 59 °F (at 11:00 AM)
Minimum temperature yesterday: 48 °F (at 11:30 PM)
Average temperature yesterday: 55 °F

Past Weeks' High & Low Weather Summary

 TemperatureHumidityPressure
High72 °F (Aug 20, 12:00 PM)100% (Aug 22, 1:30 AM)30.42 "Hg (Aug 22, 1:30 AM)
Low37 °F (Aug 31, 5:30 AM)28% (Aug 20, 10:00 AM)29.53 "Hg (Sep 2, 2:30 PM)
Average54 °F68%30.11 "Hg
* Reported Aug 20 1:30 AM — Sep 4 1:30 AM, Adelaide, Weather by CustomWeather, © 2015

Note: Actual official high and low records may vary slightly from our data, if they occured in-between our weather recording intervals... More about our weather records

Advertising

Adelaide weather history for previous 24 hours

 ConditionsComfort  
Time TempWeatherWind HumidityBarometerVisibility
1:30 AM
Fri, Sep 4
50 °FPassing clouds.7 mph82%30.30 "HgN/A
12:30 AM48 °FPassing clouds.7 mph87%30.30 "HgN/A
12:00 AM48 °FPassing clouds.7 mph87%30.30 "HgN/A
11:30 PM
Thu, Sep 3
48 °FPassing clouds.7 mph87%30.30 "HgN/A
11:00 PM52 °FPassing clouds.8 mph77%30.30 "HgN/A
10:30 PM54 °FPassing clouds.7 mph77%30.30 "HgN/A
10:00 PM54 °FPassing clouds.6 mph72%30.30 "HgN/A
9:30 PM52 °FPassing clouds.8 mph82%30.30 "HgN/A
8:30 PM52 °FPassing clouds.8 mph82%30.27 "HgN/A
8:00 PM54 °FPassing clouds.5 mph82%30.27 "HgN/A
7:30 PM54 °FPassing clouds.5 mph82%30.27 "HgN/A
7:00 PM54 °FPassing clouds.7 mph77%30.27 "HgN/A
6:30 PM54 °FPassing clouds.10 mph82%30.24 "HgN/A
6:00 PM55 °FPassing clouds.8 mph77%30.24 "HgN/A
5:30 PM55 °FPartly cloudy.9 mph77%30.24 "HgN/A
5:00 PM55 °FPartly sunny.12 mph82%30.21 "HgN/A
4:30 PM54 °FSprinkles. Broken clouds.16 mph94%30.21 "Hg4 mi
3:30 PM57 °FPartly sunny.13 mph82%30.18 "HgN/A
3:00 PM57 °FSprinkles. Broken clouds.15 mph82%30.18 "HgN/A
2:30 PM57 °FBroken clouds.16 mph82%30.15 "HgN/A
1:30 PM55 °FScattered showers. Broken clouds.21 mph88%30.15 "HgN/A
1:00 PM57 °FScattered showers. Broken clouds.16 mph82%30.15 "HgN/A
12:30 PM57 °FBroken clouds.15 mph82%30.15 "HgN/A
12:00 PM57 °FBroken clouds.10 mph82%30.15 "HgN/A
11:30 AM57 °FBroken clouds.14 mph77%30.15 "HgN/A
11:00 AM59 °FScattered showers. Broken clouds.14 mph82%30.15 "HgN/A
10:30 AM57 °FScattered showers. Broken clouds.16 mph82%30.15 "HgN/A
10:00 AM57 °FScattered showers. Partly sunny.15 mph88%30.12 "HgN/A
9:30 AM57 °FPartly sunny.13 mph77%30.12 "HgN/A
9:00 AM57 °FPartly sunny.13 mph77%30.09 "HgN/A
8:30 AM55 °FPartly sunny.12 mph82%30.09 "HgN/A
8:00 AM55 °FPartly sunny.10 mph82%30.07 "HgN/A
7:30 AM55 °FPartly sunny.7 mph82%30.04 "HgN/A
7:00 AM55 °FPartly sunny.8 mph82%30.04 "HgN/A
6:30 AM55 °FPartly sunny.12 mph88%30.01 "HgN/A
6:00 AM54 °FScattered showers. Partly cloudy.15 mph94%30.01 "HgN/A
5:30 AM54 °FScattered showers. Partly cloudy.14 mph94%29.98 "HgN/A
5:00 AM55 °FSprinkles. Passing clouds.9 mph88%29.95 "HgN/A
4:30 AM55 °FPartly cloudy.10 mph82%29.95 "HgN/A
4:00 AM54 °FPartly cloudy.12 mph88%29.92 "HgN/A
3:30 AM54 °FPartly cloudy.10 mph82%29.92 "HgN/A
3:00 AM54 °FPassing clouds.7 mph82%29.92 "HgN/A
Weather by CustomWeather, © 2015

See weather overviewHow to use our weather pages